• In Belarus
  • List of Countries
  • For 7 days
  • Water Temperature
  • Satellite Maps
  • Weather Map
  • Weather Widgets
  • user-avatar
    Login

    Hourly Weather Razgrad

    Today, 18 November, Saturday

    Time Temperature Precipitation Wind Pressure Humidity
    00:00 +8°C° 0.4 mm 2 mps 743 mmHg 93%
    01:00 +8°C° 0.4 mm 2 mps 743 mmHg 94%
    02:00 +9°C° 0 mm 1 mps 743 mmHg 92%
    03:00 +9°C° 0.7 mm 1 mps 743 mmHg 92%
    04:00 +8°C° 0.7 mm 1 mps 742 mmHg 93%
    05:00 +8°C° 0.7 mm 1 mps 742 mmHg 93%
    06:00 +8°C° 0.9 mm 1 mps 742 mmHg 93%
    07:00 +8°C° 0.9 mm 1 mps 742 mmHg 93%
    08:00 +8°C° 0 mm 1 mps 742 mmHg 93%
    09:00 +8°C° 0.8 mm 1 mps 742 mmHg 92%
    10:00 +7°C° 0.8 mm 2 mps 742 mmHg 91%
    11:00 +8°C° 0.8 mm 2 mps 742 mmHg 90%
    12:00 +8°C° 0.2 mm 2 mps 741 mmHg 89%
    13:00 +8°C° 0.2 mm 2 mps 741 mmHg 88%
    14:00 +8°C° 0 mm 2 mps 741 mmHg 87%
    15:00 +8°C° 0 mm 2 mps 741 mmHg 88%
    16:00 +9°C° 0 mm 1 mps 741 mmHg 89%
    17:00 +9°C° 0 mm 1 mps 740 mmHg 90%
    18:00 +9°C° 0 mm 1 mps 740 mmHg 91%
    19:00 +8°C° 0 mm 1 mps 740 mmHg 92%
    20:00 +8°C° 0 mm 1 mps 740 mmHg 92%
    21:00 +8°C° 0 mm 1 mps 740 mmHg 92%
    22:00 +8°C° 0 mm 1 mps 740 mmHg 92%
    23:00 +7°C° 0 mm 2 mps 740 mmHg 91%

    Tomorrow, 19 November, Sunday

    Time Temperature Precipitation Wind Pressure Humidity
    00:00 +7°C° 0 mm 2 mps 740 mmHg 92%
    01:00 +7°C° 0 mm 2 mps 740 mmHg 92%
    02:00 +7°C° 0 mm 2 mps 739 mmHg 92%
    03:00 +7°C° 0 mm 2 mps 739 mmHg 92%
    04:00 +7°C° 0 mm 2 mps 739 mmHg 93%
    05:00 +7°C° 0 mm 2 mps 739 mmHg 93%
    06:00 +7°C° 0 mm 2 mps 738 mmHg 92%
    07:00 +7°C° 0 mm 2 mps 738 mmHg 91%
    08:00 +7°C° 0 mm 3 mps 738 mmHg 91%
    09:00 +7°C° 0.1 mm 3 mps 738 mmHg 86%
    10:00 +8°C° 0.1 mm 3 mps 739 mmHg 81%
    11:00 +9°C° 0.1 mm 3 mps 739 mmHg 76%
    12:00 +9°C° 0 mm 3 mps 738 mmHg 72%
    13:00 +10°C° 0 mm 3 mps 738 mmHg 69%
    14:00 +10°C° 0 mm 3 mps 738 mmHg 66%
    15:00 +9°C° 0 mm 3 mps 737 mmHg 68%
    16:00 +9°C° 0 mm 2 mps 737 mmHg 71%
    17:00 +9°C° 0 mm 1 mps 737 mmHg 73%
    18:00 +9°C° 0.1 mm 1 mps 737 mmHg 74%
    19:00 +9°C° 0.1 mm 1 mps 737 mmHg 75%
    20:00 +8°C° 0.1 mm 1 mps 737 mmHg 76%
    21:00 +8°C° 0 mm 1 mps 737 mmHg 76%
    22:00 +8°C° 0 mm 1 mps 737 mmHg 75%
    23:00 +8°C° 0 mm 1 mps 737 mmHg 75%

    Day after tomorrow, 20 November, Monday

    Time Temperature Precipitation Wind Pressure Humidity
    00:00 +7°C° 0 mm 1 mps 737 mmHg 75%
    01:00 +7°C° 0 mm 1 mps 737 mmHg 74%
    02:00 +6°C° 0 mm 2 mps 737 mmHg 74%
    03:00 +6°C° 0.2 mm 2 mps 736 mmHg 74%
    04:00 +6°C° 0.2 mm 2 mps 736 mmHg 75%
    05:00 +5°C° 0.2 mm 3 mps 736 mmHg 76%
    06:00 +4°C° 0.9 mm 3 mps 737 mmHg 79%
    07:00 +4°C° 0.9 mm 3 mps 737 mmHg 82%
    08:00 +4°C° 0.9 mm 4 mps 738 mmHg 85%
    09:00 +4°C° 1 mm 4 mps 738 mmHg 84%
    10:00 +4°C° 1 mm 4 mps 738 mmHg 83%
    11:00 +4°C° 1 mm 4 mps 739 mmHg 82%
    12:00 +4°C° 0.5 mm 4 mps 739 mmHg 79%
    13:00 +3°C° 0.5 mm 5 mps 739 mmHg 77%
    14:00 +5°C° 0.5 mm 5 mps 739 mmHg 74%
    15:00 +5°C° 0 mm 5 mps 739 mmHg 72%
    16:00 +5°C° 0 mm 4 mps 739 mmHg 70%
    17:00 +4°C° 0 mm 4 mps 739 mmHg 69%
    18:00 +4°C° 0 mm 4 mps 740 mmHg 68%
    19:00 +3°C° 0 mm 5 mps 740 mmHg 68%
    20:00 +2°C° 0 mm 5 mps 740 mmHg 67%
    21:00 +2°C° 0 mm 5 mps 741 mmHg 69%
    22:00 +2°C° 0 mm 5 mps 741 mmHg 70%
    23:00 +1°C° 0 mm 4 mps 742 mmHg 72%

    21 November, Tuesday

    Time Temperature Precipitation Wind Pressure Humidity
    00:00 +1°C° 0 mm 4 mps 742 mmHg 74%
    01:00 +1°C° 0 mm 4 mps 742 mmHg 77%
    02:00 0°C° 0 mm 4 mps 742 mmHg 79%
    03:00 0°C° 0 mm 4 mps 742 mmHg 81%
    04:00 0°C° 0 mm 4 mps 743 mmHg 83%
    05:00 0°C° 0 mm 4 mps 743 mmHg 84%
    06:00 0°C° 0 mm 4 mps 743 mmHg 83%
    07:00 0°C° 0 mm 4 mps 743 mmHg 82%
    08:00 0°C° 0 mm 4 mps 743 mmHg 81%
    09:00 +1°C° 0 mm 4 mps 743 mmHg 74%
    10:00 +2°C° 0 mm 5 mps 743 mmHg 68%
    11:00 +5°C° 0 mm 5 mps 743 mmHg 61%
    12:00 +6°C° 0 mm 5 mps 743 mmHg 58%
    13:00 +6°C° 0 mm 5 mps 742 mmHg 55%
    14:00 +7°C° 0 mm 5 mps 742 mmHg 51%
    15:00 +6°C° 0 mm 4 mps 741 mmHg 55%
    16:00 +7°C° 0 mm 3 mps 741 mmHg 59%
    17:00 +5°C° 0 mm 3 mps 741 mmHg 63%
    18:00 +5°C° 0 mm 3 mps 741 mmHg 64%
    19:00 +5°C° 0 mm 3 mps 741 mmHg 65%
    20:00 +5°C° 0 mm 4 mps 741 mmHg 66%
    21:00 +5°C° 0 mm 4 mps 741 mmHg 64%
    22:00 +5°C° 0 mm 4 mps 741 mmHg 63%
    23:00 +6°C° 0 mm 5 mps 741 mmHg 61%

    22 November, Wednesday

    Time Temperature Precipitation Wind Pressure Humidity
    00:00 +6°C° 0 mm 5 mps 741 mmHg 63%
    01:00 +6°C° 0 mm 5 mps 741 mmHg 65%
    02:00 +6°C° 0 mm 4 mps 741 mmHg 67%
    03:00 +6°C° 0 mm 4 mps 741 mmHg 69%
    04:00 +6°C° 0 mm 4 mps 741 mmHg 70%
    05:00 +6°C° 0 mm 5 mps 741 mmHg 71%
    06:00 +6°C° 0 mm 4 mps 741 mmHg 72%
    07:00 +6°C° 0 mm 4 mps 741 mmHg 73%
    08:00 +6°C° 0 mm 4 mps 742 mmHg 73%
    09:00 +7°C° 0 mm 4 mps 742 mmHg 71%
    10:00 +8°C° 0 mm 5 mps 743 mmHg 68%
    11:00 +10°C° 0 mm 5 mps 743 mmHg 65%
    12:00 +10°C° 0 mm 5 mps 743 mmHg 64%
    13:00 +11°C° 0 mm 4 mps 743 mmHg 63%
    14:00 +12°C° 0 mm 4 mps 743 mmHg 62%
    15:00 +11°C° 0 mm 3 mps 744 mmHg 66%
    16:00 +10°C° 0 mm 2 mps 744 mmHg 71%
    17:00 +9°C° 0 mm 2 mps 744 mmHg 75%
    18:00 +10°C° 0 mm 1 mps 745 mmHg 76%
    19:00 +9°C° 0 mm 1 mps 745 mmHg 78%
    20:00 +9°C° 0 mm 1 mps 745 mmHg 80%
    21:00 +8°C° 0 mm 1 mps 746 mmHg 81%
    22:00 +8°C° 0 mm 1 mps 746 mmHg 82%
    23:00 +8°C° 0 mm 1 mps 746 mmHg 83%

    23 November, Thursday

    Time Temperature Precipitation Wind Pressure Humidity
    00:00 +8°C° 0 mm 1 mps 746 mmHg 84%
    01:00 +8°C° 0 mm 1 mps 746 mmHg 84%
    02:00 +8°C° 0 mm 1 mps 746 mmHg 85%
    03:00 +7°C° 0 mm 1 mps 746 mmHg 85%
    04:00 +7°C° 0 mm 1 mps 746 mmHg 85%
    05:00 +7°C° 0 mm 1 mps 746 mmHg 85%
    06:00 +7°C° 0 mm 1 mps 747 mmHg 84%
    07:00 +7°C° 0 mm 1 mps 747 mmHg 84%
    08:00 +7°C° 0 mm 1 mps 747 mmHg 83%
    09:00 +9°C° 0 mm 1 mps 748 mmHg 75%
    10:00 +11°C° 0 mm 1 mps 748 mmHg 67%
    11:00 +13°C° 0 mm 1 mps 748 mmHg 60%
    12:00 +13°C° 0 mm 1 mps 748 mmHg 57%
    13:00 +14°C° 0 mm 1 mps 748 mmHg 53%
    14:00 +15°C° 0 mm 1 mps 747 mmHg 50%
    15:00 +13°C° 0 mm 1 mps 747 mmHg 55%
    16:00 +12°C° 0 mm 1 mps 747 mmHg 60%
    17:00 +11°C° 0 mm 1 mps 747 mmHg 64%
    18:00 +11°C° 0 mm 1 mps 748 mmHg 66%
    19:00 +10°C° 0 mm 1 mps 748 mmHg 68%
    20:00 +10°C° 0 mm 1 mps 748 mmHg 70%
    21:00 +9°C° 0 mm 1 mps 748 mmHg 70%
    22:00 +9°C° 0 mm 1 mps 748 mmHg 71%
    23:00 +9°C° 0 mm 1 mps 749 mmHg 72%
    Show more